カタログに戻る

QIANFAN-17

運用中通信PO
NORAD 60395·PAYLOAD·🇨🇳 China

打ち上げ Aug 6, 2024 から Taiyuan Satellite Launch Center

Loading…

次のパス (今後24時間)

TLE

最新Source: Space-Track

元期: Sep 14, 2026, 13:03 UTC

1 60395U 24140S   26257.54439311  .00000018  00000-0  96289-5 0  9994
2 60395  88.9676 270.8345 0016740 124.8250 235.4479 13.51021514105371

AllMySatでQIANFAN-17をリアルタイム追跡

Download on the App Store